Regional Weather Roundup
Issued by NWS

Current Version | Previous Version | Text Only | Print | Product List | Glossary On
Versions: 1 2 3 4 5 6 7 8 9 10 11 12 13 14 15 16 17 18 19 20 21 22 23 24 25 26 27 28 29 30 31 32 33 34 35 36 37 38 39 40 41 42 43 44 45 46 47 48 49 50
000
ASUS43 KOAX 290210
RWRNE
WEATHER ROUNDUP FOR NEBRASKA
NATIONAL WEATHER SERVICE OMAHA NE
900 PM CDT THU MAY 28 2015

NOTES: SATELLITE DATA IS BEING USED TO AUGMENT CLOUD COVER ABOVE
       12000 FEET.
       "FAIR" INDICATES FEW OR NO CLOUDS BELOW 12,000 FEET WITH NO
       SIGNIFICANT WEATHER AND/OR OBSTRUCTIONS TO VISIBILITY.

  * THESE STATIONS DO NOT REPORT WEATHER SUCH AS RAIN...SNOW OR FOG.

NEZ001>004-019>022-054>056-290300-
NEBRASKA PANHANDLE

CITY           SKY/WX    TMP DP  RH WIND       PRES   REMARKS
SCOTTSBLUFF    CLOUDY    59  49  69 NE15G25   29.98R
ALLIANCE       CLOUDY    60  54  80 NW23G33   29.98R
CHADRON        CLOUDY    60  54  80 NE9       29.96R
KIMBALL          N/A    N/A N/A N/A MISG        N/A
SIDNEY         CLOUDY    56  54  93 SW3       29.97R
$$

NEZ057>060-069>072-079>082-290300-
SOUTHWEST NEBRASKA

CITY           SKY/WX    TMP DP  RH WIND       PRES   REMARKS
NORTH PLATTE   RAIN      58  54  86 W16       29.94R
IMPERIAL       CLOUDY    57  50  77 NE13      29.90F
LEXINGTON      CLOUDY    71  61  71 S14       29.92S
MCCOOK         LGT RAIN  57  54  89 N15       29.98F
OGALLALA       CLOUDY    60  54  81 NE7       29.91F
$$

NEZ005>010-023>029-035>040-094-290300-
NORTH CENTRAL NEBRASKA

CITY           SKY/WX    TMP DP  RH WIND       PRES   REMARKS
VALENTINE      CLOUDY    65  56  72 CALM      29.89R
AINSWORTH      CLOUDY    65  61  88 E6        29.87F
BROKEN BOW     CLOUDY    72  61  68 S9        29.90S THUNDER
O`NEILL        CLOUDY    72  61  70 S5        29.88F
ORD            CLOUDY    69  63  81 SE7       29.88R THUNDER
THEDFORD       CLOUDY    65  54  67 SE15      29.92S
$$

NEZ041-046>049-061>064-073>077-083>087-290300-
SOUTH CENTRAL NEBRASKA

CITY           SKY/WX    TMP DP  RH WIND       PRES   REMARKS
GRAND ISLAND   CLOUDY    73  58  59 S13       29.93R
AURORA         CLOUDY    74  59  60 S12       29.93R
HASTINGS       CLOUDY    72  63  73 S7        29.94R
HEBRON         CLOUDY    72  61  68 S6        29.93R
HOLDREGE       CLOUDY    70  60  70 S5        29.94R
KEARNEY *      CLOUDY    72  61  68 S10       29.93R
YORK           CLOUDY    73  63  68 S12       29.93R
$$

NEZ011>018-030>034-042>045-290300-
NORTHEAST NEBRASKA

CITY           SKY/WX    TMP DP  RH WIND       PRES   REMARKS
NORFOLK        CLOUDY    72  64  76 SE9       29.91R
ALBION         CLOUDY    73  59  62 SW5       29.91R
BLAIR          PTCLDY    68  62  82 SE10      29.94R
COLUMBUS *     CLOUDY    72  63  73 SE9       29.92R
FREMONT        MOCLDY    71  64  78 SE10      29.92R
TEKAMAH        MOCLDY    69  64  84 SE15      29.91R
WAYNE          MOCLDY    69  64  83 SE13      29.90R
$$

NEZ050>053-065>068-078-088>093-290300-
SOUTHEAST NEBRASKA

CITY           SKY/WX    TMP DP  RH WIND       PRES   REMARKS
LINCOLN        MOCLDY    71  65  81 S10       29.93R
OMAHA EPPLEY   MOCLDY    69  63  81 S9        29.93R
BEATRICE       MOCLDY    71  65  79 S6        29.94R
FALLS CITY     MOCLDY    68  63  84 SE8       29.94R
NEBRASKA CITY  PTCLDY    68  62  80 S8        29.94S
PLATTSMOUTH    PTCLDY    68  63  85 SE7       29.94R
$$

NEZ044-045-051>053-067-290300-
OMAHA AREA

CITY           SKY/WX    TMP DP  RH WIND       PRES   REMARKS
OMAHA EPPLEY   MOCLDY    69  63  81 S9        29.93R
BLAIR          PTCLDY    68  62  82 SE10      29.94R
FREMONT        MOCLDY    71  64  78 SE10      29.92R
MILLARD        MOCLDY    70  65  83 SE8       29.93R
OFFUTT AFB     PTCLDY    68  64  85 SE6       29.93R
PLATTSMOUTH    PTCLDY    68  63  85 SE7       29.94R
WAHOO          FAIR      70  64  83 SE9       29.93R
$$



USA.gov is the U.S. government's official web portal to all federal, state and local government web resources and services.